When you browse on this site, cookies collect data to enhance your experience and personalize the content and advertising you see.
Visit our Privacy Policy to learn more. By continuing to use the site, you agree to this use of cookies and data.
  • In Hungary
  • List of Countries
  • For 7 days
  • Water Temperature
  • Satellite Maps
  • Weather Map
  • News
  • Weather Widgets
  • user-avatar
    Login

    Hourly Weather Natanja

    Today, 21 July, Sunday

    Time Temperature Precipitation Wind Pressure Humidity
    00:00 +25°C° 0 mm 2 mps 752 mmHg 81%
    01:00 +25°C° 0 mm 2 mps 752 mmHg 81%
    02:00 +25°C° 0 mm 2 mps 752 mmHg 82%
    03:00 +25°C° 0 mm 2 mps 752 mmHg 81%
    04:00 +25°C° 0 mm 2 mps 752 mmHg 81%
    05:00 +25°C° 0 mm 2 mps 752 mmHg 80%
    06:00 +26°C° 0 mm 2 mps 752 mmHg 75%
    07:00 +28°C° 0 mm 3 mps 752 mmHg 70%
    08:00 +29°C° 0 mm 3 mps 752 mmHg 64%
    09:00 +30°C° 0 mm 4 mps 752 mmHg 61%
    10:00 +30°C° 0 mm 4 mps 752 mmHg 58%
    11:00 +32°C° 0 mm 5 mps 752 mmHg 55%
    12:00 +32°C° 0 mm 5 mps 752 mmHg 56%
    13:00 +32°C° 0 mm 5 mps 751 mmHg 57%
    14:00 +32°C° 0 mm 6 mps 751 mmHg 58%
    15:00 +30°C° 0 mm 5 mps 751 mmHg 61%
    16:00 +30°C° 0 mm 5 mps 751 mmHg 64%
    17:00 +29°C° 0 mm 5 mps 751 mmHg 67%
    18:00 +28°C° 0 mm 4 mps 751 mmHg 72%
    19:00 +27°C° 0 mm 3 mps 751 mmHg 78%
    20:00 +26°C° 0 mm 2 mps 751 mmHg 84%
    21:00 +26°C° 0 mm 2 mps 751 mmHg 84%
    22:00 +26°C° 0 mm 1 mps 751 mmHg 84%
    23:00 +25°C° 0 mm 1 mps 751 mmHg 84%

    Tomorrow, 22 July, Monday

    Time Temperature Precipitation Wind Pressure Humidity
    00:00 +25°C° 0 mm 1 mps 751 mmHg 84%
    01:00 +25°C° 0 mm 1 mps 751 mmHg 84%
    02:00 +25°C° 0 mm 1 mps 751 mmHg 85%
    03:00 +25°C° 0 mm 2 mps 750 mmHg 85%
    04:00 +25°C° 0 mm 2 mps 750 mmHg 85%
    05:00 +25°C° 0 mm 2 mps 750 mmHg 85%
    06:00 +26°C° 0 mm 3 mps 750 mmHg 79%
    07:00 +28°C° 0 mm 3 mps 751 mmHg 73%
    08:00 +29°C° 0 mm 4 mps 751 mmHg 68%
    09:00 +30°C° 0 mm 4 mps 751 mmHg 64%
    10:00 +32°C° 0 mm 4 mps 751 mmHg 60%
    11:00 +33°C° 0 mm 4 mps 751 mmHg 56%
    12:00 +33°C° 0 mm 5 mps 750 mmHg 56%
    13:00 +33°C° 0 mm 5 mps 750 mmHg 56%
    14:00 +33°C° 0 mm 5 mps 749 mmHg 56%
    15:00 +33°C° 0 mm 5 mps 749 mmHg 59%
    16:00 +32°C° 0 mm 5 mps 749 mmHg 62%
    17:00 +32°C° 0 mm 4 mps 749 mmHg 65%
    18:00 +29°C° 0 mm 4 mps 749 mmHg 72%
    19:00 +28°C° 0 mm 4 mps 749 mmHg 79%
    20:00 +27°C° 0 mm 3 mps 749 mmHg 87%
    21:00 +26°C° 0 mm 2 mps 749 mmHg 87%
    22:00 +26°C° 0 mm 2 mps 749 mmHg 87%
    23:00 +26°C° 0 mm 1 mps 749 mmHg 87%

    Day after tomorrow, 23 July, Tuesday

    Time Temperature Precipitation Wind Pressure Humidity
    00:00 +26°C° 0 mm 1 mps 748 mmHg 88%
    01:00 +25°C° 0 mm 1 mps 748 mmHg 88%
    02:00 +25°C° 0 mm 1 mps 748 mmHg 88%
    03:00 +25°C° 0 mm 1 mps 748 mmHg 88%
    04:00 +25°C° 0 mm 1 mps 748 mmHg 88%
    05:00 +25°C° 0 mm 1 mps 748 mmHg 88%
    06:00 +26°C° 0 mm 1 mps 748 mmHg 82%
    07:00 +28°C° 0 mm 2 mps 749 mmHg 75%
    08:00 +29°C° 0 mm 2 mps 749 mmHg 69%
    09:00 +30°C° 0 mm 3 mps 749 mmHg 63%
    10:00 +33°C° 0 mm 3 mps 749 mmHg 58%
    11:00 +34°C° 0 mm 4 mps 749 mmHg 52%
    12:00 +34°C° 0 mm 5 mps 748 mmHg 51%
    13:00 +34°C° 0 mm 5 mps 748 mmHg 49%
    14:00 +34°C° 0 mm 5 mps 747 mmHg 48%
    15:00 +34°C° 0 mm 6 mps 747 mmHg 51%
    16:00 +33°C° 0 mm 6 mps 747 mmHg 54%
    17:00 +32°C° 0 mm 6 mps 747 mmHg 57%
    18:00 +30°C° 0 mm 5 mps 748 mmHg 66%
    19:00 +28°C° 0 mm 5 mps 748 mmHg 75%
    20:00 +27°C° 0 mm 4 mps 748 mmHg 83%
    21:00 +27°C° 0 mm 3 mps 748 mmHg 84%
    22:00 +26°C° 0 mm 2 mps 748 mmHg 85%
    23:00 +26°C° 0 mm 1 mps 748 mmHg 85%

    24 July, Wednesday

    Time Temperature Precipitation Wind Pressure Humidity
    00:00 +26°C° 0 mm 1 mps 748 mmHg 84%
    01:00 +26°C° 0 mm 1 mps 748 mmHg 84%
    02:00 +26°C° 0 mm 1 mps 748 mmHg 83%
    03:00 +25°C° 0 mm 1 mps 748 mmHg 83%
    04:00 +25°C° 0 mm 2 mps 748 mmHg 83%
    05:00 +25°C° 0 mm 2 mps 748 mmHg 83%
    06:00 +27°C° 0 mm 2 mps 748 mmHg 77%
    07:00 +28°C° 0 mm 3 mps 749 mmHg 71%
    08:00 +30°C° 0 mm 3 mps 749 mmHg 65%
    09:00 +32°C° 0 mm 4 mps 749 mmHg 60%
    10:00 +33°C° 0 mm 4 mps 749 mmHg 56%
    11:00 +34°C° 0 mm 5 mps 749 mmHg 51%
    12:00 +34°C° 0 mm 5 mps 749 mmHg 52%
    13:00 +34°C° 0 mm 5 mps 749 mmHg 52%
    14:00 +34°C° 0 mm 5 mps 748 mmHg 53%
    15:00 +33°C° 0 mm 5 mps 748 mmHg 56%
    16:00 +32°C° 0 mm 4 mps 748 mmHg 59%
    17:00 +32°C° 0 mm 4 mps 748 mmHg 62%
    18:00 +29°C° 0 mm 3 mps 748 mmHg 69%
    19:00 +28°C° 0 mm 3 mps 749 mmHg 77%
    20:00 +26°C° 0 mm 2 mps 749 mmHg 85%
    21:00 +26°C° 0 mm 2 mps 749 mmHg 84%
    22:00 +25°C° 0 mm 1 mps 749 mmHg 84%
    23:00 +25°C° 0 mm 1 mps 749 mmHg 83%

    25 July, Thursday

    Time Temperature Precipitation Wind Pressure Humidity
    00:00 +25°C° 0 mm 1 mps 749 mmHg 83%
    01:00 +24°C° 0 mm 1 mps 749 mmHg 83%
    02:00 +24°C° 0 mm 1 mps 749 mmHg 84%
    03:00 +24°C° 0 mm 1 mps 749 mmHg 83%
    04:00 +24°C° 0 mm 1 mps 749 mmHg 83%
    05:00 +23°C° 0 mm 1 mps 749 mmHg 82%
    06:00 +25°C° 0 mm 1 mps 750 mmHg 75%
    07:00 +27°C° 0 mm 1 mps 750 mmHg 68%
    08:00 +29°C° 0 mm 2 mps 750 mmHg 60%
    09:00 +30°C° 0 mm 2 mps 750 mmHg 56%
    10:00 +33°C° 0 mm 3 mps 750 mmHg 51%
    11:00 +34°C° 0 mm 3 mps 750 mmHg 47%
    12:00 +34°C° 0 mm 4 mps 750 mmHg 47%
    13:00 +34°C° 0 mm 4 mps 750 mmHg 46%
    14:00 +34°C° 0 mm 5 mps 749 mmHg 46%
    15:00 +33°C° 0 mm 5 mps 749 mmHg 49%
    16:00 +33°C° 0 mm 5 mps 749 mmHg 51%
    17:00 +32°C° 0 mm 5 mps 749 mmHg 54%
    18:00 +29°C° 0 mm 4 mps 749 mmHg 62%
    19:00 +28°C° 0 mm 4 mps 749 mmHg 71%
    20:00 +26°C° 0 mm 3 mps 750 mmHg 79%
    21:00 +25°C° 0 mm 3 mps 750 mmHg 79%
    22:00 +25°C° 0 mm 3 mps 749 mmHg 79%
    23:00 +25°C° 0 mm 3 mps 749 mmHg 78%

    26 July, Friday

    Time Temperature Precipitation Wind Pressure Humidity
    00:00 +24°C° 0 mm 2 mps 749 mmHg 78%
    01:00 +24°C° 0 mm 2 mps 749 mmHg 77%
    02:00 +24°C° 0 mm 1 mps 749 mmHg 76%
    03:00 +24°C° 0 mm 1 mps 749 mmHg 76%
    04:00 +24°C° 0 mm 1 mps 750 mmHg 77%
    05:00 +24°C° 0 mm 1 mps 750 mmHg 77%
    06:00 +26°C° 0 mm 1 mps 750 mmHg 69%
    07:00 +28°C° 0 mm 1 mps 750 mmHg 62%
    08:00 +29°C° 0 mm 1 mps 750 mmHg 54%
    09:00 +30°C° 0 mm 2 mps 750 mmHg 51%
    10:00 +31°C° 0 mm 3 mps 750 mmHg 48%
    11:00 +33°C° 0 mm 4 mps 750 mmHg 45%
    12:00 +34°C° 0 mm 4 mps 749 mmHg 45%
    13:00 +34°C° 0 mm 5 mps 749 mmHg 45%
    14:00 +34°C° 0 mm 6 mps 749 mmHg 45%
    15:00 +33°C° 0 mm 6 mps 748 mmHg 49%
    16:00 +32°C° 0 mm 6 mps 748 mmHg 53%
    17:00 +30°C° 0 mm 6 mps 748 mmHg 57%
    18:00 +29°C° 0 mm 5 mps 748 mmHg 67%
    19:00 +28°C° 0 mm 4 mps 748 mmHg 76%
    20:00 +26°C° 0 mm 3 mps 749 mmHg 85%
    21:00 +26°C° 0 mm 2 mps 748 mmHg 86%
    22:00 +26°C° 0 mm 2 mps 748 mmHg 86%
    23:00 +26°C° 0 mm 1 mps 748 mmHg 87%
    Show more